When you browse on this site, cookies collect data to enhance your experience and personalize the content and advertising you see.
Visit our Privacy Policy to learn more. By continuing to use the site, you agree to this use of cookies and data.
  • In Sweden
  • List of Countries
  • For 7 days
  • Water Temperature
  • Satellite Maps
  • Weather Map
  • Weather Widgets
  • user-avatar
    Login

    Hourly Weather Akkuduk

    Today, 22 April, Monday

    Time Temperature Precipitation Wind Pressure Humidity
    00:00 +5°C° 0 mm 1 mps 753 mmHg 49%
    01:00 +5°C° 0 mm 1 mps 753 mmHg 50%
    02:00 +4°C° 0 mm 1 mps 753 mmHg 52%
    03:00 +3°C° 0 mm 2 mps 753 mmHg 54%
    04:00 +3°C° 0 mm 2 mps 753 mmHg 57%
    05:00 +2°C° 0 mm 2 mps 753 mmHg 58%
    06:00 +4°C° 0 mm 2 mps 754 mmHg 55%
    07:00 +5°C° 0 mm 2 mps 754 mmHg 51%
    08:00 +6°C° 0 mm 2 mps 754 mmHg 47%
    09:00 +7°C° 0 mm 2 mps 754 mmHg 44%
    10:00 +8°C° 0 mm 2 mps 754 mmHg 40%
    11:00 +8°C° 0 mm 2 mps 754 mmHg 36%
    12:00 +9°C° 0 mm 2 mps 753 mmHg 35%
    13:00 +9°C° 0 mm 2 mps 753 mmHg 35%
    14:00 +11°C° 0 mm 1 mps 753 mmHg 34%
    15:00 +11°C° 0 mm 1 mps 753 mmHg 33%
    16:00 +11°C° 0 mm 1 mps 753 mmHg 32%
    17:00 +10°C° 0 mm 2 mps 753 mmHg 31%
    18:00 +10°C° 0 mm 2 mps 753 mmHg 34%
    19:00 +9°C° 0 mm 2 mps 753 mmHg 37%
    20:00 +8°C° 0 mm 2 mps 753 mmHg 40%
    21:00 +8°C° 0 mm 2 mps 752 mmHg 44%
    22:00 +7°C° 0 mm 2 mps 752 mmHg 49%
    23:00 +5°C° 0 mm 3 mps 752 mmHg 53%

    Tomorrow, 23 April, Tuesday

    Time Temperature Precipitation Wind Pressure Humidity
    00:00 +5°C° 0 mm 3 mps 752 mmHg 56%
    01:00 +4°C° 0 mm 3 mps 752 mmHg 60%
    02:00 +4°C° 0 mm 3 mps 751 mmHg 63%
    03:00 +4°C° 0 mm 3 mps 751 mmHg 64%
    04:00 +3°C° 0 mm 3 mps 751 mmHg 65%
    05:00 +3°C° 0 mm 3 mps 751 mmHg 66%
    06:00 +4°C° 0 mm 3 mps 751 mmHg 62%
    07:00 +7°C° 0 mm 3 mps 750 mmHg 58%
    08:00 +8°C° 0 mm 3 mps 750 mmHg 53%
    09:00 +8°C° 0 mm 4 mps 750 mmHg 48%
    10:00 +10°C° 0 mm 4 mps 749 mmHg 44%
    11:00 +11°C° 0 mm 4 mps 749 mmHg 39%
    12:00 +12°C° 0 mm 4 mps 749 mmHg 38%
    13:00 +12°C° 0 mm 4 mps 748 mmHg 37%
    14:00 +13°C° 0 mm 5 mps 748 mmHg 35%
    15:00 +13°C° 0.1 mm 5 mps 748 mmHg 40%
    16:00 +11°C° 0.1 mm 6 mps 747 mmHg 44%
    17:00 +11°C° 0.1 mm 6 mps 747 mmHg 48%
    18:00 +10°C° 0 mm 5 mps 747 mmHg 52%
    19:00 +11°C° 0 mm 4 mps 747 mmHg 55%
    20:00 +10°C° 0 mm 3 mps 747 mmHg 58%
    21:00 +9°C° 0 mm 3 mps 747 mmHg 61%
    22:00 +9°C° 0 mm 3 mps 747 mmHg 65%
    23:00 +8°C° 0 mm 3 mps 747 mmHg 68%

    Day after tomorrow, 24 April, Wednesday

    Time Temperature Precipitation Wind Pressure Humidity
    00:00 +7°C° 0.1 mm 4 mps 746 mmHg 68%
    01:00 +7°C° 0.1 mm 4 mps 746 mmHg 68%
    02:00 +7°C° 0.1 mm 4 mps 746 mmHg 68%
    03:00 +6°C° 0 mm 4 mps 746 mmHg 68%
    04:00 +6°C° 0 mm 4 mps 746 mmHg 69%
    05:00 +5°C° 0 mm 4 mps 746 mmHg 70%
    06:00 +7°C° 0 mm 4 mps 746 mmHg 65%
    07:00 +8°C° 0 mm 4 mps 746 mmHg 59%
    08:00 +11°C° 0 mm 4 mps 746 mmHg 54%
    09:00 +12°C° 0 mm 4 mps 746 mmHg 47%
    10:00 +14°C° 0 mm 4 mps 746 mmHg 41%
    11:00 +15°C° 0 mm 4 mps 746 mmHg 34%
    12:00 +14°C° 0.3 mm 4 mps 746 mmHg 42%
    13:00 +13°C° 0.3 mm 4 mps 745 mmHg 50%
    14:00 +12°C° 0.3 mm 4 mps 745 mmHg 57%
    15:00 +12°C° 0 mm 4 mps 745 mmHg 54%
    16:00 +13°C° 0 mm 3 mps 745 mmHg 51%
    17:00 +15°C° 0 mm 2 mps 744 mmHg 47%
    18:00 +14°C° 0.1 mm 2 mps 744 mmHg 52%
    19:00 +13°C° 0.1 mm 2 mps 744 mmHg 57%
    20:00 +11°C° 0.1 mm 3 mps 744 mmHg 63%
    21:00 +10°C° 0.3 mm 2 mps 744 mmHg 67%
    22:00 +10°C° 0.3 mm 2 mps 743 mmHg 71%
    23:00 +9°C° 0.3 mm 2 mps 743 mmHg 75%

    25 April, Thursday

    Time Temperature Precipitation Wind Pressure Humidity
    00:00 +9°C° 0.1 mm 2 mps 743 mmHg 77%
    01:00 +8°C° 0.1 mm 2 mps 742 mmHg 78%
    02:00 +8°C° 0.1 mm 2 mps 742 mmHg 79%
    03:00 +8°C° 0.3 mm 3 mps 742 mmHg 81%
    04:00 +7°C° 0.3 mm 3 mps 742 mmHg 83%
    05:00 +6°C° 0.3 mm 4 mps 742 mmHg 84%
    06:00 +6°C° 0.1 mm 5 mps 742 mmHg 78%
    07:00 +6°C° 0.1 mm 7 mps 742 mmHg 72%
    08:00 +6°C° 0.1 mm 8 mps 742 mmHg 65%
    09:00 +7°C° 0.1 mm 8 mps 742 mmHg 60%
    10:00 +9°C° 0.1 mm 7 mps 743 mmHg 54%
    11:00 +9°C° 0.1 mm 7 mps 743 mmHg 48%
    12:00 +10°C° 0.1 mm 7 mps 743 mmHg 45%
    13:00 +10°C° 0.1 mm 6 mps 743 mmHg 42%
    14:00 +11°C° 0.1 mm 6 mps 743 mmHg 38%
    15:00 +12°C° 0 mm 5 mps 743 mmHg 38%
    16:00 +12°C° 0 mm 4 mps 743 mmHg 37%
    17:00 +12°C° 0 mm 3 mps 743 mmHg 36%
    18:00 +12°C° 0 mm 3 mps 743 mmHg 40%
    19:00 +12°C° 0 mm 2 mps 743 mmHg 43%
    20:00 +10°C° 0 mm 2 mps 743 mmHg 47%
    21:00 +9°C° 0.5 mm 3 mps 743 mmHg 56%
    22:00 +7°C° 0.5 mm 4 mps 743 mmHg 65%
    23:00 +6°C° 0.5 mm 5 mps 743 mmHg 75%

    26 April, Friday

    Time Temperature Precipitation Wind Pressure Humidity
    00:00 +5°C° 0.3 mm 5 mps 743 mmHg 75%
    01:00 +4°C° 0.3 mm 6 mps 743 mmHg 76%
    02:00 +3°C° 0.3 mm 7 mps 743 mmHg 76%
    03:00 +2°C° 0.2 mm 7 mps 744 mmHg 77%
    04:00 +2°C° 0.2 mm 7 mps 744 mmHg 78%
    05:00 +1°C° 0.2 mm 6 mps 744 mmHg 79%
    06:00 +1°C° 0.1 mm 6 mps 745 mmHg 73%
    07:00 +1°C° 0.1 mm 5 mps 746 mmHg 67%
    08:00 +1°C° 0.1 mm 5 mps 746 mmHg 60%
    09:00 +2°C° 0 mm 5 mps 747 mmHg 53%
    10:00 +4°C° 0 mm 4 mps 747 mmHg 46%
    11:00 +4°C° 0 mm 4 mps 747 mmHg 38%
    12:00 +5°C° 0 mm 3 mps 747 mmHg 36%
    13:00 +5°C° 0 mm 3 mps 747 mmHg 34%
    14:00 +7°C° 0 mm 2 mps 746 mmHg 31%
    15:00 +7°C° 0 mm 2 mps 746 mmHg 30%
    16:00 +7°C° 0 mm 2 mps 746 mmHg 29%
    17:00 +8°C° 0 mm 2 mps 746 mmHg 28%
    18:00 +7°C° 0 mm 2 mps 746 mmHg 30%
    19:00 +7°C° 0 mm 2 mps 746 mmHg 33%
    20:00 +7°C° 0 mm 2 mps 746 mmHg 35%
    21:00 +5°C° 0 mm 3 mps 747 mmHg 38%
    22:00 +4°C° 0 mm 3 mps 747 mmHg 40%
    23:00 +4°C° 0 mm 4 mps 747 mmHg 43%

    27 April, Saturday

    Time Temperature Precipitation Wind Pressure Humidity
    00:00 +3°C° 0 mm 4 mps 747 mmHg 49%
    01:00 +3°C° 0 mm 3 mps 747 mmHg 55%
    02:00 +2°C° 0 mm 3 mps 747 mmHg 62%
    03:00 +2°C° 0 mm 3 mps 748 mmHg 67%
    04:00 +1°C° 0 mm 3 mps 748 mmHg 73%
    05:00 0°C° 0 mm 3 mps 748 mmHg 79%
    06:00 +1°C° 0 mm 3 mps 749 mmHg 77%
    07:00 +2°C° 0 mm 3 mps 749 mmHg 75%
    08:00 +2°C° 0 mm 3 mps 750 mmHg 73%
    09:00 +3°C° 0 mm 4 mps 750 mmHg 68%
    10:00 +4°C° 0 mm 4 mps 750 mmHg 63%
    11:00 +6°C° 0 mm 4 mps 750 mmHg 58%
    12:00 +6°C° 0 mm 5 mps 750 mmHg 55%
    13:00 +7°C° 0 mm 6 mps 750 mmHg 53%
    14:00 +8°C° 0 mm 6 mps 750 mmHg 50%
    15:00 +8°C° 0 mm 7 mps 749 mmHg 47%
    16:00 +8°C° 0 mm 7 mps 749 mmHg 44%
    17:00 +7°C° 0 mm 8 mps 749 mmHg 40%
    18:00 +8°C° 0 mm 7 mps 749 mmHg 38%
    19:00 +6°C° 0 mm 7 mps 749 mmHg 36%
    20:00 +6°C° 0 mm 7 mps 748 mmHg 34%
    21:00 +6°C° 0.1 mm 8 mps 748 mmHg 36%
    22:00 +6°C° 0.1 mm 9 mps 747 mmHg 38%
    23:00 +6°C° 0.1 mm 10 mps 746 mmHg 40%
    Show more